Weather History for Rapid City, SD

Change the Weather History Date:

Wednesday, January 1, 2014

  Actual Average Record
Temperature  
Mean Temperature 19 °F 24 °F  
Max Temperature 29 °F 37 °F 63 °F (1998)
Min Temperature 9 °F 12 °F -20 °F (1974)
Degree Days  
Heating Degree Days 46 41  
Month to date heating degree days 46 41  
Since 1 July heating degree days 3189 2957  
Cooling Degree Days 0 0  
Month to date cooling degree days 0 0  
Year to date cooling degree days 0 0  
Moisture  
Dew Point 15 °F    
Average Humidity 81    
Maximum Humidity 92    
Minimum Humidity 69    
Precipitation  
Precipitation T in 0.01 in 0.28 in (1970)
Month to date precipitation T 0.01  
Year to date precipitation T 0.01  
Snow  
Snow T in 0.10 in - ()
Month to date snowfall T 0.1  
Since 1 July snowfall 33.4 13.3  
Snow Depth 0.00 in    
Sea Level Pressure  
Sea Level Pressure 30.27 in    
Wind  
Wind Speed 8 mph (NNE)    
Max Wind Speed 31 mph    
Max Gust Speed 37 mph    
Visibility 7 miles    
Events Fog    
T = Trace of Precipitation, MM = Missing Value Source: NWS Daily Summary

Daily Weather History Graph

Daily Weather History Graph

Search for Another Location

Airport:

Trip Planner

Search our weather history database for the weather conditions in past years. The results will help you decide how hot, cold, wet, or windy it might be!

Date:

Astronomy

Jan. 01, 2014 Rise Set
Actual Time 7:27 AM MST 4:24 PM MST
Civil Twilight 6:54 AM MST 4:57 PM MST
Nautical Twilight 6:17 AM MST 5:34 PM MST
Astronomical Twilight 5:42 AM MST 6:09 PM MST
Moon 7:17 AM MST (1/1) 5:15 PM MST (1/1)
Length of Visible Light 10h 03m
Length of Day
8h 57m
New Moon, 0% of the Moon is Illuminated
Jan 1
New Moon
Jan 7
First Quarter
Jan 15
Full
Jan 23
Last Quarter
Jan 30
New

Hourly Weather History & Observations

Time (MST) Temp. Windchill Dew Point Humidity Pressure Visibility Wind Dir Wind Speed Gust Speed Precip Events Conditions
12:47 AM 10.4 °F 4.0 °F 6.8 °F 85% 30.02 in 7.0 mi ENE 3.5 mph - N/A   Overcast
12:52 AM 10.0 °F 1.8 °F 7.0 °F 87% 30.19 in 8.0 mi NE 4.6 mph - N/A   Overcast
1:43 AM 8.6 °F - 8.6 °F 100% 30.05 in 3.0 mi Calm Calm - N/A   Overcast
1:52 AM 10.0 °F 3.6 °F 7.0 °F 87% 30.22 in 5.0 mi NNE 3.5 mph - N/A   Overcast
2:00 AM 10.4 °F - 6.8 °F 85% 30.05 in 5.0 mi Calm Calm - N/A   Overcast
2:47 AM 10.4 °F 4.0 °F 8.6 °F 92% 30.06 in 8.0 mi ENE 3.5 mph - N/A   Overcast
2:52 AM 10.0 °F 3.6 °F 8.1 °F 92% 30.24 in 8.0 mi NE 3.5 mph - N/A   Overcast
3:28 AM 10.4 °F 2.2 °F 8.6 °F 92% 30.08 in 1.5 mi North 4.6 mph - N/A   Overcast
3:41 AM 10.4 °F - 8.6 °F 92% 30.08 in 0.8 mi Calm Calm - N/A   Overcast
3:52 AM 10.9 °F 4.7 °F 9.0 °F 92% 30.27 in 0.5 mi North 3.5 mph - N/A Fog Light Freezing Fog
4:37 AM 12.2 °F - 10.4 °F 92% 30.08 in 0.2 mi Calm Calm - N/A Fog Light Freezing Fog
4:52 AM 12.0 °F - 10.9 °F 95% 30.26 in 0.5 mi Calm Calm - N/A Fog Light Freezing Fog
5:52 AM 15.1 °F 6.4 °F 12.0 °F 88% 30.29 in 0.5 mi NNW 5.8 mph - N/A Fog Light Freezing Fog
6:52 AM 15.1 °F 9.4 °F 12.9 °F 91% 30.31 in 1.0 mi NW 3.5 mph - N/A   Overcast
7:12 AM 15.8 °F 8.6 °F 12.2 °F 86% 30.14 in 3.0 mi NW 4.6 mph - N/A   Overcast
7:19 AM 15.8 °F 8.6 °F 12.2 °F 86% 30.14 in 2.0 mi WNW 4.6 mph - N/A   Overcast
7:32 AM 15.8 °F 8.6 °F 14.0 °F 93% 30.15 in 5.0 mi NW 4.6 mph - N/A   Overcast
7:50 AM 15.8 °F - 14.0 °F 93% 30.16 in 6.0 mi Calm Calm - N/A   Overcast
7:52 AM 16.0 °F - 14.0 °F 92% 30.33 in 6.0 mi Calm Calm - N/A   Overcast
8:52 AM 18.0 °F 12.7 °F 15.1 °F 88% 30.36 in 7.0 mi SE 3.5 mph - 0.00 in   Mostly Cloudy
9:52 AM 19.9 °F 14.9 °F 18.0 °F 92% 30.37 in 9.0 mi SSW 3.5 mph - N/A   Overcast
10:52 AM 21.9 °F - 19.9 °F 92% 30.38 in 8.0 mi Calm Calm - 0.00 in   Overcast
11:19 AM 26.6 °F 17.5 °F 24.8 °F 93% 30.20 in 10.0 mi North 9.2 mph - N/A   Overcast
11:52 AM 28.0 °F 13.9 °F 23.0 °F 81% 30.35 in 10.0 mi North 23.0 mph 27.6 mph N/A   Overcast
12:18 PM 28.4 °F 13.3 °F 23.0 °F 80% 30.19 in 10.0 mi North 27.6 mph 34.5 mph N/A   Scattered Clouds
12:52 PM 28.0 °F 13.3 °F 21.0 °F 75% 30.35 in 10.0 mi NNW 25.3 mph 33.4 mph N/A   Clear
1:52 PM 28.9 °F 14.8 °F 21.0 °F 72% 30.34 in 10.0 mi North 24.2 mph 33.4 mph N/A   Clear
2:52 PM 28.9 °F 14.5 °F 19.0 °F 67% 30.35 in 10.0 mi NNW 25.3 mph 34.5 mph N/A   Clear
3:52 PM 28.0 °F 14.3 °F 19.0 °F 69% 30.37 in 10.0 mi NNW 21.9 mph - N/A   Clear
4:52 PM 24.1 °F 11.5 °F 18.0 °F 77% 30.40 in 10.0 mi North 15.0 mph - N/A   Clear
5:52 PM 23.0 °F 12.4 °F 18.0 °F 81% 30.41 in 10.0 mi North 10.4 mph - N/A   Partly Cloudy
6:52 PM 23.0 °F - 18.0 °F 81% 30.42 in 10.0 mi Calm Calm - N/A   Mostly Cloudy
7:52 PM 24.1 °F - 19.0 °F 81% 30.40 in 10.0 mi Calm Calm - N/A   Overcast
8:52 PM 23.0 °F 18.4 °F 19.0 °F 85% 30.38 in 10.0 mi SE 3.5 mph - N/A   Overcast
9:05 PM 23.0 °F 18.4 °F 19.4 °F 86% 30.23 in 10.0 mi SE 3.5 mph - N/A   Overcast
9:37 PM 23.0 °F 18.4 °F 19.4 °F 86% 30.22 in 10.0 mi SSE 3.5 mph - N/A   Overcast
9:52 PM 23.0 °F 18.4 °F 19.0 °F 85% 30.36 in 10.0 mi SE 3.5 mph - N/A   Overcast
10:52 PM 21.9 °F 17.2 °F 19.0 °F 89% 30.34 in 10.0 mi SE 3.5 mph - N/A   Overcast
11:52 PM 21.0 °F 16.2 °F 18.0 °F 88% 30.29 in 10.0 mi SSE 3.5 mph - N/A   Overcast